Orbital Elements at Epoch 2459200.5 (2020-Dec-17.0) TDB
Reference: JPL 38 (heliocentric ecliptic J2000)
Element | Value | Uncertainty (1-sigma) | Units |
e | .3523106741430926 | 1.4696e-08 | |
a | 2.857330609519876 | 1.0136e-08 | au |
q | 1.850662536230235 | 4.0812e-08 | au |
i | 12.44545945643646 | 6.0493e-07 | deg |
node | 331.540869594513 | 2.4375e-06 | deg |
peri | 96.57394022389461 | 3.1818e-06 | deg |
M | 82.59929444491628 | 2.7179e-06 | deg |
tp | 2458795.725631211141 (2019-Nov-08.22563121) | 1.1561e-05 | TDB |
period | 1764.164860526333 4.83 | 9.387e-06 2.57e-08 | d yr |
n | .2040625613031399 | 1.0858e-09 | deg/d |
Q | 3.863998682809517 | 1.3707e-08 | au |
|
| | Orbit Determination Parameters
Additional Information
|